Regional Weather Roundup
Issued by NWS Cleveland, OH

Home | Current Version | Previous Version | Text Only | Print | Product List | Glossary Off
Versions: 1 2 3 4 5 6 7 8 9 10 11 12 13 14 15 16 17 18 19 20 21 22 23 24 25 26 27 28 29 30 31 32 33 34 35 36 37 38 39 40 41 42 43 44 45 46 47 48 49 50

000
ASUS41 KCLE 021310
RWRCLE
OHIO REGIONAL WEATHER ROUNDUP
NATIONAL WEATHER SERVICE CLEVELAND, OH
900 AM EDT MON MAY 02 2016

NOTE: "FAIR" INDICATES FEW OR NO CLOUDS BELOW 12,000 FEET WITH NO
SIGNIFICANT WEATHER AND/OR OBSTRUCTIONS TO VISIBILITY.

OHZ001>008-015>018-024>027-034-035-043-044-021400-
   NORTHWEST OHIO

CITY           SKY/WX    TMP DP  RH WIND       PRES   REMARKS
DEFIANCE       CLOUDY    47  45  93 N9        30.00R
FINDLAY        CLOUDY    50  44  80 NE8       29.98R
TOLEDO EXPRESS CLOUDY    48  46  93 NE7       30.01R FOG
TOLEDO EXEC    CLOUDY    48  45  89 NE7       30.01R
LIMA           CLOUDY    49  48  97 N10       29.97S FOG
$$

OHZ009>014-019>023-028>033-038-089-021400-
   NORTHEAST OHIO

CITY           SKY/WX    TMP DP  RH WIND       PRES   REMARKS
CLE-HOPKINS    CLOUDY    46  44  93 N17       29.99R FOG
CLE-LAKEFRONT  CLOUDY    46  44  93 N16       29.97R FOG
CUY CO. ARPT   CLOUDY    46  46 100 N7        29.96R FOG
LORAIN-ELYRIA  CLOUDY    45  42  89 NE13      29.98R
ASHTABULA      CLOUDY    44  44 100 N5        29.95R FOG
AKRON-CANTON   FOG       51  49  92 NW10      29.93R VSB 1/4
WOOSTER        CLOUDY    48  47  96 NW9       29.96R
MANSFIELD      FOG       47  47 100 NW10      29.96R VSB 1/16
YOUNGSTOWN     FOG       47  46  97 NW9       29.92R VSB 1/2
$$

OHZ042-051>053-060>062-070>072-077>081-021400-
  SOUTHWEST OHIO

CITY           SKY/WX    TMP DP  RH WIND       PRES   REMARKS
CINC-COVINGTON CLOUDY    60  57  89 SW6       29.98R
CINC-LUNKEN    CLOUDY    61  58  90 SW8       29.98R
HAMILTON       CLOUDY    60  58  92 W6        29.98R
DAYTON         CLOUDY    53  52  96 NW7       29.98R FOG
WRIGHT-PAT AFB CLOUDY    55  55 100 NW6       29.96S FOG
DAYTON GENERAL CLOUDY    57  54  89 NW8       29.96R
WILMINGTON     CLOUDY    59  57  93 W12       29.95R
$$

OHZ036-037-039>041-045>050-054>059-063>069-073>076-082>088-021400-
  CENTRAL AND SOUTHEAST OHIO

CITY           SKY/WX    TMP DP  RH WIND       PRES   REMARKS
COLUMBUS       CLOUDY    56  55  97 NW7       29.93R
OSU AIRPORT    CLOUDY    55  54  96 NW8       29.95R FOG
BOLTON FIELD   CLOUDY    55  55 100 NW6       29.95R FOG
RICKENBACK AFB CLOUDY    58  57  97 NW7       29.94R FOG
NEWARK         CLOUDY    61  56  83 W6        29.92R
MARION         CLOUDY    49  47  93 N12       29.98R
LANCASTER      MOSUNNY   63  57  81 SW8       29.93R
ZANESVILLE     CLOUDY    63  59  87 SW7       29.92R
NEW PHILLY     PTSUNNY   59  56  89 CALM      29.90F
$$



USA.gov is the U.S. government's official web portal to all federal, state and local government web resources and services.